Weather Roundup
Issued by NWS Chicago, IL

Home | Current Version | Previous Version | Graphics & Text | Print | Product List | Glossary On
Versions: 1 2 3 4 5 6 7 8 9 10 11 12 13 14 15 16 17 18 19 20 21 22 23 24 25 26 27 28 29 30 31 32 33 34 35 36 37 38 39 40 41 42 43 44 45 46 47 48 49 50
000
NZUS59 KLOT 021208
HRRLOT

CHICAGO AREA WEATHER ROUNDUP
NATIONAL WEATHER SERVICE CHICAGO/ROMEOVILLE IL
700 AM CDT WED SEP 02 2015

NOTE: "FAIR" INDICATES FEW OR NO CLOUDS BELOW 12,000 FEET WITH NO
SIGNIFICANT WEATHER AND/OR OBSTRUCTIONS TO VISIBILITY.

* THESE STATIONS ARE NOT UNDER NWS QUALITY CONTROL. THEY ALSO MAY NOT
  REPORT WEATHER SUCH AS PRECIPITATION OR FOG.

ILZ005-006-012>014-019>023-021300-
NORTHEAST ILLINOIS

CITY           SKY/WX    TMP DP  RH WIND       PRES   REMARKS
OHARE          PTCLDY    72  68  87 SW5       30.04R
6HR MIN TEMP:  72; 6HR MAX TEMP:  76;

MIDWAY         PTCLDY    74  68  81 SW7       30.05R
6HR MIN TEMP:  73; 6HR MAX TEMP:  78;

AURORA         CLEAR     66  65  96 CALM      30.06S FOG
6HR MIN TEMP:  64; 6HR MAX TEMP:  73;

LANSING*       CLEAR     67  66  97 S3        30.07R FOG
JOLIET*        CLEAR     69  69  99 SW3       30.07R FOG
WAUKEGAN       CLEAR     72  68  87 W3        30.04R
6HR MIN TEMP:  72; 6HR MAX TEMP:  76;

DUPAGE AIRPORT CLEAR     70  67  90 SW6       30.05R FOG
6HR MIN TEMP:  67; 6HR MAX TEMP:  74;

WHEELING       CLEAR     73  67  81 CALM      30.05R
6HR MIN TEMP:  73; 6HR MAX TEMP:  77;

KANKAKEE*      CLEAR     69  68  97 CALM      30.09R FOG
MORRIS*        FOG       67  66  97 S5        30.06R VSB 1/4
LEWIS AIRPORT* CLEAR     67  67  99 SW5       30.07R FOG
NORTHERLY IS     N/A     74  67  78 SW3         N/A
$$

WIZ051-052-058>065-066-070>072-021300-
SOUTHEAST WISCONSIN

CITY           SKY/WX    TMP DP  RH WIND       PRES   REMARKS
MILWAUKEE      PTCLDY    74  68  81 W3        30.03R
6HR MIN TEMP:  73; 6HR MAX TEMP:  77;

KENOSHA*       MOCLDY    71  68  90 W6        30.04R
RACINE*        PTCLDY    72  67  84 SW3       30.05R
BURLINGTON     MOCLDY    66  65  98 SW3       30.04R FOG
WAUKESHA       CLEAR     68  66  94 CALM      30.05R
WEST BEND      CLEAR     68  66  94 CALM      30.03R
$$

INZ001>003-010>013-019-020-021300-
NORTHWEST INDIANA

CITY           SKY/WX    TMP DP  RH WIND       PRES   REMARKS
GARY*          PTCLDY    73  68  83 S7        30.07R
MICHIGAN CITY* NOT AVBL
RENSSELAER*    NOT AVBL
VALPARAISO     CLEAR     69  67  93 SW3       30.09R FOG
$$

LMZ740>746-021300-
SOUTHERN LAKE MICHIGAN

STATION/POSITION TIME  SKY/WX   TEMP WIND        PRES    VSBY
                                AIR  DIR/SP/G
                 (UTC)          (F)  (DEG/KT/KT) (MB)    (MI)
HARRISON CRIB    1100            74  160/  2/  5   N/A
BURNHAM HARBOR   1200            74  240/  3/  9   N/A
CALUMET HARBOR   1100            72  210/  3/  5   N/A
BURNS HARBOR     1100            72  190/  9/ 11 1017.9R
MICHIGAN CITY    1100            73  180/  8/ 10   N/A
$$

ABBREVIATIONS USED IN REMARKS
   TC - TEMPERATURE IN CELSIUS
  WCI - WIND CHILL INDEX
   HX - HEAT INDEX
  VSB - VISIBILITY
$$



USA.gov is the U.S. government's official web portal to all federal, state and local government web resources and services.